DW6344 Weather Reports


Display with metric or nautical units.
time (UTC)temp
F
wind
direction
speed
MPH
gust
MPH
rain 1hr
in
rain 24hr
in
rain mn
in
humidity
%
barometer
mb
20260509111357 56 18 0.0 0.0 0.00 0.01 0.00 86 1011.2
20260509110842 56 18 0.0 0.0 0.00 0.01 0.00 86 1011.3
20260509110337 56 18 0.0 0.0 0.00 0.01 0.00 86 1011.2
20260509105836 55 18 0.0 0.0 0.00 0.01 0.00 86 1011.3
20260509105411 55 18 0.0 0.0 0.00 0.01 0.00 86 1011.3
20260509104856 55 18 0.0 0.0 0.00 0.01 0.00 86 1011.3
20260509104335 55 18 0.0 1.0 0.00 0.01 0.00 86 1011.3
20260509103846 55 18 0.0 1.0 0.00 0.01 0.00 86 1011.5
20260509103348 55 18 0.0 1.0 0.00 0.01 0.00 85 1011.4
20260509102842 55 18 0.0 1.0 0.00 0.01 0.00 85 1011.4
20260509102344 55 13 0.0 0.0 0.00 0.01 0.00 85 1011.4
20260509101844 55 13 0.0 1.0 0.00 0.01 0.00 85 1011.4
20260509101417 55 13 0.0 1.0 0.00 0.01 0.00 85 1011.5
20260509100856 55 13 0.0 1.0 0.00 0.01 0.00 84 1011.4
20260509100359 55 13 0.0 1.0 0.00 0.01 0.00 84 1011.4
20260509095842 55 13 0.0 1.0 0.00 0.01 0.00 84 1011.4
20260509095351 55 13 0.0 1.0 0.00 0.01 0.00 84 1011.4
20260509094837 55 13 0.0 1.0 0.00 0.01 0.00 84 1011.4
20260509094331 56 13 0.0 1.0 0.00 0.01 0.00 84 1011.4
20260509093847 56 13 0.0 3.0 0.00 0.01 0.00 84 1011.3
20260509093404 55 32 0.0 2.0 0.00 0.01 0.00 85 1011.4
20260509092852 55 34 0.0 1.0 0.00 0.01 0.00 85 1011.4
20260509092357 55 34 0.0 2.0 0.00 0.01 0.00 85 1011.3
20260509091834 55 27 0.0 2.0 0.00 0.01 0.00 85 1011.2
20260509091331 54 26 0.0 1.0 0.00 0.01 0.00 85 1011.3
20260509090830 54 27 0.0 1.0 0.00 0.01 0.00 84 1011.2
20260509090337 54 27 0.0 1.0 0.00 0.01 0.00 84 1011.4
20260509085847 54 27 0.0 0.0 0.00 0.01 0.00 84 1011.4
20260509085339 55 27 0.0 0.0 0.00 0.01 0.00 84 1011.4
20260509084903 55 27 0.0 0.0 0.00 0.01 0.00 83 1011.4
20260509084342 55 27 0.0 0.0 0.00 0.01 0.00 83 1011.6
20260509083825 55 27 0.0 0.0 0.00 0.01 0.00 83 1011.6
20260509083336 55 27 0.0 2.0 0.00 0.01 0.00 83 1011.5
20260509082838 55 27 0.0 2.0 0.00 0.01 0.00 83 1011.5
20260509082342 55 27 0.0 3.0 0.00 0.01 0.00 83 1011.4
20260509081857 54 88 0.0 0.0 0.00 0.01 0.00 82 1011.4
20260509081359 55 88 0.0 1.0 0.00 0.01 0.00 82 1011.4
20260509080832 55 88 0.0 1.0 0.00 0.01 0.00 82 1011.3
20260509080348 55 87 0.0 1.0 0.00 0.01 0.00 82 1011.3
20260509075848 55 88 0.0 0.0 0.00 0.01 0.00 81 1011.3
20260509075344 55 87 0.0 0.0 0.00 0.01 0.00 81 1011.3
20260509074845 55 87 0.0 0.0 0.00 0.01 0.00 81 1011.3
20260509074342 55 88 0.0 0.0 0.00 0.01 0.00 81 1011.4
20260509073837 55 88 0.0 0.0 0.00 0.01 0.00 81 1011.4
20260509073338 55 88 0.0 1.0 0.00 0.01 0.00 81 1011.4
20260509072844 55 88 0.0 1.0 0.00 0.01 0.00 80 1011.5
20260509072342 55 87 0.0 0.0 0.00 0.01 0.00 80 1011.6
20260509071840 55 87 0.0 1.0 0.00 0.01 0.00 80 1011.6
20260509071347 55 87 0.0 1.0 0.00 0.01 0.00 80 1011.6
20260509070843 56 88 0.0 0.0 0.00 0.01 0.00 79 1011.7
20260509070332 56 87 0.0 0.0 0.00 0.01 0.00 79 1011.8
20260509065831 56 88 0.0 0.0 0.00 0.01 0.00 78 1011.7
20260509065350 56 88 0.0 1.0 0.00 0.01 0.00 78 1011.8
20260509064829 57 87 0.0 3.0 0.00 0.01 0.00 77 1011.8
20260509064329 57 87 1.0 3.0 0.00 0.01 0.00 77 1011.8
20260509063834 57 25 0.0 1.0 0.00 0.01 0.00 77 1011.8
20260509063344 57 25 0.0 2.0 0.00 0.01 0.00 76 1011.9
20260509062858 57 25 0.0 2.0 0.00 0.01 0.00 76 1011.8
20260509062342 57 26 0.0 3.0 0.00 0.01 0.00 76 1012.0
20260509061858 57 25 0.0 3.0 0.00 0.01 0.00 76 1012.0
20260509061357 58 83 0.0 2.0 0.00 0.01 0.00 76 1012.2
20260509060840 58 84 0.0 2.0 0.00 0.01 0.00 76 1012.0
20260509060352 57 121 0.0 2.0 0.00 0.01 0.00 76 1012.1
20260509055829 57 127 0.0 3.0 0.00 0.01 0.00 76 1012.1
20260509055336 57 44 0.0 3.0 0.00 0.01 0.00 76 1012.1
20260509054908 57 43 0.0 2.0 0.00 0.01 0.00 76 1012.0
20260509054407 57 43 0.0 2.0 0.00 0.01 0.00 76 1012.1
20260509053834 57 48 0.0 1.0 0.00 0.01 0.00 76 1012.2
20260509053333 57 49 0.0 2.0 0.00 0.01 0.00 76 1012.1
20260509052831 57 48 0.0 2.0 0.00 0.01 0.00 75 1012.2
20260509052342 57 38 0.0 2.0 0.00 0.01 0.00 75 1012.2
20260509051843 57 71 0.0 3.0 0.00 0.01 0.00 75 1012.1
20260509051327 58 71 1.0 3.0 0.00 0.01 0.00 75 1012.0
20260509050847 58 19 0.0 1.0 0.00 0.01 0.00 75 1012.0
20260509050400 58 15 0.0 2.0 0.00 0.01 0.00 75 1012.2
20260509045901 58 339 0.0 2.0 0.00 0.01 0.00 75 1012.1
20260509045340 58 339 0.0 2.0 0.00 0.01 0.00 74 1012.2
20260509044854 58 338 0.0 2.0 0.00 0.01 0.00 74 1012.2
20260509044347 58 338 0.0 1.0 0.00 0.01 0.00 73 1012.1
20260509043844 58 339 0.0 3.0 0.00 0.01 0.00 73 1012.0
20260509043327 58 339 0.0 3.0 0.00 0.01 0.00 73 1012.1
20260509042847 58 65 0.0 1.0 0.00 0.01 0.00 72 1012.1
20260509042334 58 65 0.0 1.0 0.00 0.01 0.00 72 1012.2
20260509041905 58 65 0.0 1.0 0.00 0.01 0.00 71 1012.0
20260509041338 58 65 0.0 3.0 0.00 0.01 0.00 71 1012.1
20260509040901 58 65 0.0 3.0 0.00 0.01 0.00 71 1012.1
20260509040341 58 360 0.0 3.0 0.00 0.01 0.00 71 1012.2
20260509035842 58 344 0.0 2.0 0.00 0.01 0.01 71 1012.2
20260509035341 58 346 0.0 2.0 0.00 0.01 0.01 71 1012.4
20260509034831 58 355 0.0 2.0 0.00 0.01 0.01 70 1012.4
20260509034354 58 355 0.0 2.0 0.00 0.01 0.01 69 1012.4
20260509033835 59 355 0.0 2.0 0.00 0.01 0.01 69 1012.3
20260509033404 59 355 1.0 4.0 0.00 0.01 0.01 69 1012.5
20260509032837 58 360 1.0 4.0 0.00 0.01 0.01 69 1012.6
20260509032356 58 79 0.0 3.0 0.00 0.01 0.01 69 1012.7
20260509031834 58 74 0.0 1.0 0.00 0.01 0.01 70 1012.6
20260509031409 57 74 0.0 2.0 0.00 0.01 0.01 70 1012.5
20260509030907 57 74 0.0 3.0 0.00 0.01 0.01 70 1012.5
20260509030335 56 47 0.0 3.0 0.00 0.01 0.01 71 1012.5
20260509025830 55 113 0.0 3.0 0.00 0.01 0.01 72 1012.7
20260509025333 55 76 0.0 2.0 0.00 0.01 0.01 73 1012.8
20260509024838 54 17 0.0 0.0 0.00 0.01 0.01 73 1012.4
20260509024340 54 17 0.0 0.0 0.00 0.01 0.01 74 1012.7
20260509023855 54 17 0.0 0.0 0.00 0.01 0.01 73 1012.9
20260509023400 55 17 0.0 0.0 0.00 0.01 0.01 72 1012.9
20260509022838 55 17 0.0 0.0 0.00 0.01 0.01 71 1012.8
20260509022345 55 17 0.0 0.0 0.00 0.01 0.01 71 1012.7
20260509021831 55 17 0.0 0.0 0.00 0.01 0.01 70 1012.4
20260509021338 55 17 0.0 0.0 0.00 0.01 0.01 69 1012.6
20260509020834 55 17 0.0 0.0 0.00 0.01 0.01 68 1012.5
20260509020334 56 17 0.0 0.0 0.00 0.01 0.01 68 1012.6
20260509015850 56 17 0.0 0.0 0.00 0.01 0.01 67 1012.6
20260509015347 56 17 0.0 0.0 0.00 0.01 0.01 67 1012.5
20260509014854 56 17 0.0 0.0 0.00 0.01 0.01 66 1012.3
20260509014409 56 17 0.0 0.0 0.00 0.01 0.01 65 1012.3
20260509013838 57 17 0.0 0.0 0.00 0.01 0.01 64 1012.3
20260509013345 57 17 0.0 0.0 0.00 0.01 0.01 64 1012.2
20260509012835 57 17 0.0 0.0 0.00 0.01 0.01 63 1012.1
20260509012334 57 17 0.0 0.0 0.00 0.01 0.01 62 1012.1
20260509011834 58 17 0.0 0.0 0.00 0.01 0.01 61 1012.0
20260509011330 58 17 0.0 0.0 0.00 0.01 0.01 61 1012.0
20260509010835 58 17 0.0 0.0 0.00 0.01 0.01 61 1012.0
20260509010345 58 17 0.0 0.0 0.00 0.01 0.01 58 1012.0
20260509005833 59 17 0.0 0.0 0.00 0.01 0.01 57 1012.1
20260509005411 59 17 0.0 0.0 0.00 0.01 0.01 56 1012.0
20260509004848 59 17 0.0 0.0 0.00 0.01 0.01 56 1012.0
20260509004344 60 17 0.0 0.0 0.00 0.01 0.01 55 1011.9
20260509003829 60 17 0.0 0.0 0.00 0.01 0.01 54 1012.0
20260509003333 61 17 0.0 0.0 0.00 0.01 0.01 53 1012.0
20260509002843 61 17 0.0 0.0 0.00 0.01 0.01 53 1011.7
20260509002329 62 17 0.0 0.0 0.00 0.01 0.01 51 1011.8
20260509001834 62 17 0.0 0.0 0.00 0.01 0.01 50 1011.8
20260509001328 63 17 0.0 0.0 0.00 0.01 0.01 49 1011.8
20260509000843 63 17 0.0 0.0 0.00 0.01 0.01 48 1011.8
20260509000349 64 17 0.0 0.0 0.00 0.01 0.01 46 1011.8
20260508235901 64 17 0.0 0.0 0.00 0.02 0.01 46 1011.7
20260508235334 65 17 0.0 0.0 0.00 0.02 0.01 45 1011.6
20260508234845 65 17 0.0 0.0 0.00 0.02 0.01 43 1011.4
20260508234330 66 17 0.0 0.0 0.00 0.02 0.01 42 1011.4
20260508233837 66 17 0.0 1.0 0.00 0.02 0.01 41 1011.3
20260508233344 67 17 0.0 1.0 0.00 0.02 0.01 40 1011.2
20260508232858 67 17 0.0 1.0 0.00 0.02 0.01 39 1011.2
20260508232330 68 17 0.0 2.0 0.00 0.02 0.01 38 1011.1
20260508231835 68 17 0.0 2.0 0.00 0.02 0.01 37 1011.1
20260508231358 69 13 0.0 2.0 0.00 0.02 0.01 35 1011.0
20260508230858 69 105 0.0 2.0 0.00 0.02 0.01 35 1011.0
20260508230359 69 105 1.0 2.0 0.00 0.02 0.01 36 1011.0
20260508225849 69 65 1.0 5.0 0.00 0.02 0.01 34 1011.1
20260508225345 70 91 1.0 5.0 0.00 0.02 0.01 33 1011.2
20260508224847 70 32 1.0 3.0 0.00 0.02 0.01 34 1011.1
20260508224402 70 9 1.0 2.0 0.00 0.02 0.01 32 1011.1
20260508223829 70 42 0.0 2.0 0.00 0.02 0.01 34 1011.2
20260508223348 70 43 1.0 3.0 0.00 0.02 0.01 34 1011.2
20260508222840 70 35 1.0 4.0 0.00 0.02 0.01 32 1011.2
20260508222346 71 75 1.0 4.0 0.00 0.02 0.01 33 1011.2
20260508221843 71 78 0.0 4.0 0.00 0.02 0.01 31 1011.3
20260508221330 71 67 1.0 4.0 0.00 0.02 0.01 32 1011.4
20260508220835 71 5 2.0 3.0 0.00 0.02 0.01 31 1011.3
20260508220400 71 101 0.0 1.0 0.00 0.02 0.01 31 1011.3
20260508215843 71 101 0.0 2.0 0.00 0.02 0.01 33 1011.2
20260508215344 71 101 0.0 3.0 0.00 0.02 0.01 31 1011.2
20260508214848 71 57 1.0 3.0 0.00 0.02 0.01 31 1011.2
20260508214331 71 140 0.0 2.0 0.00 0.02 0.01 32 1011.2
20260508213830 71 140 0.0 3.0 0.00 0.02 0.01 30 1011.1
20260508213348 72 307 0.0 3.0 0.00 0.02 0.01 32 1011.1
20260508212847 72 288 2.0 3.0 0.00 0.02 0.01 30 1011.1
20260508212349 72 84 1.0 3.0 0.00 0.02 0.01 28 1011.2
20260508211853 72 83 1.0 3.0 0.00 0.02 0.01 28 1011.2
20260508211333 72 72 1.0 3.0 0.00 0.02 0.01 32 1011.2
20260508210855 73 38 0.0 1.0 0.00 0.02 0.01 31 1011.2
20260508210338 73 38 0.0 3.0 0.00 0.02 0.01 27 1011.2
20260508205835 73 37 0.0 3.0 0.00 0.02 0.01 29 1011.4
20260508205344 74 61 1.0 3.0 0.00 0.02 0.01 28 1011.4
20260508204918 74 49 1.0 3.0 0.00 0.02 0.01 27 1011.4
20260508204337 74 11 1.0 4.0 0.00 0.02 0.01 26 1011.4
20260508203900 75 246 0.0 3.0 0.00 0.02 0.01 28 1011.5
20260508203414 74 303 0.0 3.0 0.00 0.02 0.01 28 1011.5
20260508202848 74 310 1.0 3.0 0.00 0.02 0.01 27 1011.5
20260508202357 74 68 0.0 5.0 0.00 0.02 0.01 28 1011.4
20260508201850 74 69 0.0 5.0 0.00 0.02 0.01 27 1011.4
20260508201402 74 24 1.0 3.0 0.00 0.02 0.01 26 1011.4
20260508200904 74 18 1.0 3.0 0.00 0.02 0.01 25 1011.4
20260508200347 74 46 1.0 4.0 0.00 0.02 0.01 27 1011.5
20260508195842 75 64 1.0 4.0 0.00 0.02 0.01 28 1011.7
20260508195328 76 25 2.0 3.0 0.00 0.02 0.01 26 1011.7
20260508194849 76 69 1.0 2.0 0.00 0.02 0.01 27 1011.9
20260508194332 76 77 0.0 2.0 0.00 0.02 0.01 26 1012.0
20260508193837 75 78 1.0 2.0 0.00 0.02 0.01 26 1012.1
20260508193348 74 77 0.0 3.0 0.00 0.02 0.01 25 1012.1
20260508192830 74 121 0.0 4.0 0.00 0.02 0.01 25 1012.2
20260508192408 74 49 2.0 5.0 0.00 0.02 0.01 27 1012.3
20260508191858 73 64 1.0 4.0 0.00 0.02 0.01 28 1012.3
20260508191340 74 330 2.0 4.0 0.00 0.02 0.01 28 1012.3
20260508190855 73 18 2.0 4.0 0.00 0.02 0.01 25 1012.4
20260508190340 73 71 1.0 4.0 0.00 0.02 0.01 27 1012.4
20260508185847 72 94 1.0 4.0 0.00 0.02 0.01 27 1012.5
20260508185346 72 325 1.0 4.0 0.00 0.02 0.01 25 1012.5
20260508184828 72 327 1.0 3.0 0.00 0.02 0.01 25 1012.6
20260508184336 73 88 0.0 3.0 0.00 0.02 0.01 27 1012.7
20260508183828 73 91 1.0 3.0 0.00 0.02 0.01 27 1012.9
20260508183333 73 86 1.0 3.0 0.00 0.02 0.01 27 1012.9
20260508182841 73 107 1.0 5.0 0.00 0.02 0.01 25 1012.9
20260508182345 73 77 1.0 5.0 0.00 0.02 0.01 27 1013.0
20260508181846 72 102 0.0 3.0 0.00 0.02 0.01 29 1013.1
20260508181329 73 13 1.0 3.0 0.00 0.02 0.01 30 1013.2
20260508180829 73 17 1.0 3.0 0.00 0.02 0.01 25 1013.2
20260508180334 72 302 1.0 3.0 0.00 0.02 0.01 32 1013.2
20260508175830 71 55 1.0 3.0 0.00 0.02 0.01 27 1013.2
20260508175403 71 71 0.0 3.0 0.00 0.02 0.01 25 1013.4
20260508174856 71 39 0.0 3.0 0.00 0.02 0.01 28 1013.4
20260508174329 70 239 1.0 3.0 0.00 0.02 0.01 26 1013.4
20260508173831 70 53 1.0 2.0 0.00 0.02 0.01 28 1013.5
20260508173338 70 120 1.0 5.0 0.00 0.02 0.01 31 1013.6
20260508172828 70 99 1.0 4.0 0.00 0.02 0.01 31 1013.6
20260508172331 70 107 1.0 4.0 0.00 0.02 0.01 33 1013.8
20260508171829 70 115 1.0 4.0 0.00 0.02 0.01 31 1013.8
20260508171344 70 123 1.0 4.0 0.00 0.02 0.01 33 1013.9
20260508170845 70 355 2.0 3.0 0.00 0.02 0.01 29 1013.9
20260508170348 71 5 1.0 2.0 0.00 0.02 0.01 30 1014.0
20260508165845 71 65 0.0 2.0 0.00 0.03 0.01 30 1014.1
20260508165338 70 355 1.0 2.0 0.00 0.03 0.01 28 1014.1
20260508164844 70 302 1.0 3.0 0.00 0.03 0.01 31 1014.2
20260508164347 70 54 1.0 3.0 0.00 0.03 0.01 27 1014.3
20260508163828 70 39 0.0 3.0 0.00 0.03 0.01 29 1014.3
20260508163341 71 300 0.0 2.0 0.00 0.03 0.01 28 1014.5
20260508162840 70 57 0.0 2.0 0.00 0.03 0.01 28 1014.5
20260508162341 70 55 0.0 2.0 0.00 0.03 0.01 31 1014.5
20260508161842 70 55 1.0 3.0 0.00 0.03 0.01 29 1014.6
20260508161336 69 246 1.0 3.0 0.00 0.03 0.01 29 1014.6
20260508160841 69 69 1.0 2.0 0.00 0.03 0.01 29 1014.7
20260508160350 69 76 0.0 3.0 0.00 0.03 0.01 31 1014.7
20260508155832 69 53 1.0 3.0 0.00 0.03 0.01 33 1014.7
20260508155357 68 16 0.0 5.0 0.00 0.03 0.01 32 1014.8
20260508154857 68 11 1.0 5.0 0.00 0.03 0.01 32 1014.8
20260508154404 68 53 0.0 3.0 0.00 0.03 0.01 33 1014.7
20260508153902 68 49 1.0 2.0 0.00 0.03 0.01 35 1014.7
20260508153341 68 58 1.0 3.0 0.00 0.03 0.01 35 1014.8
20260508152832 68 57 1.0 3.0 0.00 0.03 0.01 32 1014.9
20260508152349 67 5 0.0 2.0 0.00 0.03 0.01 41 1015.0
20260508151859 67 11 0.0 2.0 0.00 0.03 0.01 37 1014.9
20260508151334 67 188 0.0 2.0 0.00 0.03 0.01 35 1014.9
20260508150848 66 162 0.0 3.0 0.00 0.03 0.01 38 1014.9
20260508150408 66 136 1.0 3.0 0.00 0.03 0.01 38 1015.0
20260508145845 67 66 0.0 2.0 0.00 0.03 0.01 39 1014.9
20260508145415 67 65 0.0 2.0 0.00 0.03 0.01 38 1014.8
20260508144858 66 360 0.0 1.0 0.00 0.03 0.01 43 1014.9
20260508144335 66 346 0.0 1.0 0.00 0.03 0.01 46 1014.9
20260508143829 65 355 0.0 1.0 0.00 0.03 0.01 44 1015.0
20260508143330 64 355 0.0 3.0 0.00 0.03 0.01 47 1015.0
20260508142833 64 303 0.0 4.0 0.00 0.03 0.01 45 1015.0
20260508142325 64 329 0.0 5.0 0.00 0.03 0.01 43 1015.0
20260508141858 64 298 1.0 2.0 0.00 0.03 0.01 47 1015.0
20260508141401 63 176 0.0 2.0 0.00 0.03 0.01 48 1014.9
20260508140905 63 176 1.0 2.0 0.00 0.03 0.01 46 1014.9
20260508140348 62 98 1.0 2.0 0.00 0.03 0.01 47 1014.9
20260508135833 62 15 0.0 3.0 0.00 0.04 0.01 49 1014.9
20260508135335 62 110 0.0 3.0 0.00 0.04 0.01 49 1014.9
20260508134836 61 342 1.0 2.0 0.00 0.04 0.01 54 1014.9
20260508134353 61 160 0.0 3.0 0.00 0.04 0.01 53 1014.9
20260508133854 60 80 0.0 3.0 0.00 0.04 0.01 56 1014.9
20260508133354 60 286 0.0 2.0 0.00 0.04 0.01 57 1014.9
20260508132908 59 259 0.0 3.0 0.00 0.04 0.01 58 1014.8
20260508132342 59 205 0.0 2.0 0.00 0.04 0.01 59 1014.8
20260508131919 58 267 1.0 2.0 0.00 0.04 0.01 62 1014.8
20260508131335 58 222 1.0 2.0 0.01 0.04 0.01 66 1014.7
20260508130840 57 253 1.0 2.0 0.01 0.04 0.01 68 1014.7
20260508130348 56 72 0.0 1.0 0.01 0.04 0.01 74 1014.6
20260508125828 56 72 0.0 1.0 0.01 0.06 0.01 76 1014.5
20260508125330 55 25 0.0 1.0 0.01 0.06 0.01 78 1014.5
20260508124832 54 25 0.0 2.0 0.01 0.06 0.01 81 1014.4
20260508124337 54 25 0.0 3.0 0.01 0.06 0.01 83 1014.4
20260508123828 53 85 1.0 3.0 0.01 0.06 0.01 86 1014.4
20260508123353 52 126 0.0 2.0 0.01 0.06 0.01 88 1014.3
20260508122906 52 126 0.0 2.0 0.01 0.06 0.01 90 1014.2
20260508122345 51 46 0.0 3.0 0.01 0.06 0.01 90 1014.2
20260508121857 51 32 1.0 3.0 0.01 0.06 0.01 90 1014.2
20260508121329 51 117 0.0 1.0 0.00 0.05 0.00 90 1014.1
20260508120844 50 94 0.0 2.0 0.00 0.05 0.00 90 1014.1
20260508120354 50 140 0.0 1.0 0.00 0.05 0.00 90 1014.1
20260508115912 50 140 0.0 1.0 0.00 0.11 0.00 90 1014.0
20260508115350 49 140 0.0 1.0 0.00 0.11 0.00 90 1013.9
20260508114909 49 140 0.0 1.0 0.00 0.11 0.00 90 1013.9
20260508114417 49 152 0.0 0.0 0.00 0.11 0.00 90 1013.8
20260508113832 48 152 0.0 0.0 0.00 0.11 0.00 90 1013.8
20260508113400 47 152 0.0 0.0 0.00 0.11 0.00 90 1013.8
20260508112835 47 152 0.0 0.0 0.00 0.11 0.00 90 1013.8
20260508112346 47 59 0.0 0.0 0.00 0.11 0.00 90 1013.7
20260508111833 46 59 0.0 0.0 0.00 0.11 0.00 90 1013.5